Dewpoint
71 71 73 72 73 72 72 75 75 76 76 74 73 77 77 75 77 73 73 75 70 69 69 66 71 71 67 68 66 70 68 69 69 70 72 73 74 75 75 75 75 75 74 74 74 73 74 73 73 73 73 73 73 73 73 73 72 72 72 71 72 71 72 72 73 72 73 73 73 73 73 72 72 72 72 72 72 71 71 70 69 70 69 69 69
72 74 73 75 75 74 75 73 72 75 74 74 75 76 76 75 76 74 73 73 72 73 72 66 63 66 69 65 65 63 71 69 69 69 71 72 73 74 75 75 75 75 74 74 73 73 73 73 73 73 73 72 73 72 72 72 72 72 72 71 71 71 71 72 73 72 73 73 73 73 73 73 72 72 72 72 72 71 70 70 70 69 69 70 68
73 74 75 75 75 76 75 77 76 75 75 73 77 77 77 77 75 75 76 78 74 75 71 70 71 66 70 63 64 66 67 69 66 67 67 70 72 74 74 75 75 75 74 74 74 73 73 73 72 72 72 72 72 72 71 72 72 72 71 71 71 71 72 73 72 73 73 73 73 73 73 73 72 72 72 72 72 71 70 70 70 70 69 69 70
75 76 73 75 75 75 76 76 76 76 76 74 76 76 78 75 75 76 75 75 75 75 76 71 71 66 70 65 67 68 67 66 63 64 67 71 72 72 74 74 74 75 74 74 74 74 74 73 73 72 73 72 72 72 71 71 71 71 71 71 71 72 72 72 72 72 73 73 73 73 73 73 72 72 72 72 72 71 71 69 70 70 70 69 68
78 75 75 75 76 76 75 75 76 77 75 74 76 78 76 78 78 76 76 75 75 73 71 70 68 70 67 64 68 68 72 67 63 63 65 69 72 71 72 72 72 74 74 74 74 74 73 73 74 73 72 73 72 72 71 72 71 71 71 71 72 72 72 72 72 73 73 73 73 73 73 73 72 72 72 72 72 71 71 70 70 70 70 70 70
77 76 77 74 75 76 75 75 77 76 77 77 78 78 77 76 74 75 73 76 70 72 74 71 69 73 69 66 71 72 71 71 66 63 65 66 69 72 73 73 74 74 74 75 74 74 74 74 74 73 73 73 73 72 72 72 72 71 71 71 72 72 72 72 73 73 73 73 73 73 73 73 72 72 72 72 71 71 71 70 69 69 69 70 70
77 76 77 75 73 77 74 75 76 77 78 77 77 78 77 75 75 74 73 75 73 75 69 72 69 71 72 71 67 69 72 71 66 71 70 68 69 68 71 73 74 74 73 74 75 75 75 75 74 74 74 74 74 74 73 73 72 72 72 72 72 72 73 73 73 74 73 73 73 73 73 72 72 72 72 72 72 71 71 71 71 71 70 70 69
77 77 76 77 74 75 76 77 76 78 78 77 77 77 76 75 75 74 75 72 72 71 74 73 71 68 71 75 71 74 71 71 71 67 64 74 73 70 74 74 73 74 74 73 73 73 76 75 75 74 74 74 74 74 74 74 74 74 74 73 73 73 73 74 74 74 74 73 73 73 73 73 73 73 72 72 72 72 72 72 72 71 71 71 70
77 77 78 76 75 76 75 75 76 76 78 78 77 77 78 73 78 76 76 76 70 66 72 75 69 68 69 67 67 74 72 78 72 70 66 72 71 67 68 73 74 72 74 74 74 73 75 76 75 75 75 75 75 75 74 74 74 74 75 75 75 75 74 75 75 75 75 75 74 74 74 74 74 74 73 73 73 73 73 73 73 72 72 72 71
78 77 78 74 75 76 75 77 77 78 80 78 77 75 76 75 76 77 76 77 75 70 69 70 66 65 70 65 73 73 71 74 72 72 74 73 73 71 71 67 70 68 69 70 72 76 72 75 76 76 76 75 75 75 75 75 75 75 75 75 75 75 76 75 75 75 76 75 75 75 75 75 75 75 74 74 74 74 74 74 74 74 74 73 73
77 77 77 75 76 77 77 77 77 79 78 76 76 76 76 75 74 77 77 78 77 74 71 73 64 65 62 64 67 73 75 70 74 74 71 65 65 69 62 70 67 70 71 70 70 74 73 73 75 75 74 76 76 76 76 76 75 75 75 75 75 75 76 76 76 76 75 75 76 76 76 76 76 76 76 76 76 76 76 75 75 75 75 74 73
77 77 77 77 76 76 76 76 77 77 78 76 74 75 74 74 74 73 75 76 75 74 71 72 67 69 71 71 72 73 72 70 71 69 71 68 67 68 64 64 65 65 67 66 69 68 74 75 76 75 74 75 77 76 76 76 76 76 76 76 77 76 76 76 76 77 77 76 76 77 77 77 77 77 77 77 77 77 76 76 76 76 75 75 74
76 77 76 76 77 76 77 76 76 77 77 76 75 75 75 76 76 77 74 75 74 72 70 70 73 73 77 72 70 73 70 73 68 65 64 66 65 66 67 66 67 67 73 69 70 68 70 73 73 76 76 76 76 78 77 77 77 77 77 77 77 77 77 76 77 77 77 77 77 77 77 77 77 77 77 77 77 77 77 77 77 77 76 76 75
75 77 76 76 76 76 77 77 78 78 77 76 75 77 76 76 75 77 77 75 72 66 66 72 73 70 69 69 70 74 74 67 63 60 60 61 62 69 70 66 59 62 62 69 72 71 68 70 75 76 76 77 74 74 75 76 77 78 78 78 77 77 77 77 77 77 77 77 77 78 78 78 78 78 78 78 78 78 77 77 77 77 77 76 76
75 76 76 76 75 76 77 78 76 77 77 76 76 76 77 75 75 77 74 74 74 71 73 72 69 69 73 74 68 69 74 69 65 60 57 58 59 59 61 59 59 63 65 67 69 69 69 71 71 75 78 78 77 76 77 76 76 77 77 77 78 78 77 77 77 78 78 78 78 78 78 78 78 78 78 78 78 78 78 77 77 77 77 77 77
75 76 77 77 77 77 77 78 77 77 79 77 76 76 76 77 74 75 76 70 65 67 69 72 71 71 69 70 66 65 67 67 67 64 58 57 57 54 58 55 60 69 71 67 66 69 66 70 71 76 77 76 78 81 76 77 78 80 80 79 77 77 78 77 77 77 77 77 77 77 77 78 78 78 78 77 77 77 78 78 77 77 77 77 77
74 75 76 76 76 79 77 77 78 78 77 77 77 73 74 75 76 77 75 75 67 68 71 69 71 73 77 70 72 69 65 62 60 74 60 58 55 48 62 68 55 63 69 68 63 65 66 68 73 73 75 77 77 75 75 76 77 80 79 80 78 77 77 78 76 76 76 76 76 77 77 77 77 77 77 77 77 78 78 77 77 77 77 77 77
75 76 76 77 77 76 76 77 76 79 79 76 76 77 75 73 75 75 74 75 80 70 65 74 67 73 73 74 71 72 69 65 64 72 72 62 64 53 62 59 53 63 70 64 64 66 68 67 71 72 73 73 76 77 79 77 80 78 80 79 80 78 78 79 78 76 75 75 75 76 76 77 77 77 77 77 77 77 77 77 77 77 77 77 77
73 75 75 75 78 77 77 77 76 76 78 78 77 74 70 73 73 75 75 79 78 77 72 67 76 75 64 61 65 71 65 74 70 73 69 73 69 52 55 58 54 56 59 56 58 63 71 71 66 68 71 74 74 71 74 75 73 76 80 80 79 80 79 78 77 76 75 75 75 76 77 77 77 77 77 77 77 77 77 77 77 77 77 77 77
75 77 76 77 77 77 77 77 77 74 77 77 75 72 73 75 76 78 79 80 79 78 73 67 71 72 69 67 68 65 68 64 71 64 73 73 66 64 52 55 55 57 58 57 57 59 65 67 67 66 67 71 73 74 76 77 78 77 77 76 77 77 77 76 75 76 75 76 76 76 76 77 77 77 77 77 77 77 77 77 77 77 76 76 76
76 75 76 76 78 77 77 78 77 76 76 75 74 73 73 76 77 78 77 78 77 78 79 75 69 69 74 77 70 71 66 68 65 67 70 69 68 59 61 57 58 60 62 65 54 57 62 65 72 63 69 71 75 76 75 76 76 74 74 75 74 76 76 76 75 76 76 76 76 76 76 77 77 77 77 76 76 76 76 76 76 76 76 76 76
76 77 77 76 77 78 76 75 77 75 75 75 73 75 76 77 76 75 76 76 80 78 75 79 71 72 72 76 77 73 69 70 62 66 64 69 68 64 64 64 67 71 72 61 66 60 60 67 70 69 71 74 74 76 75 75 76 71 74 76 76 76 76 76 75 76 76 75 76 76 76 76 77 76 76 76 76 76 76 76 76 76 76 76 76
75 77 75 74 75 76 73 75 74 77 76 75 76 72 73 73 72 76 77 77 77 77 74 75 80 77 70 77 76 68 71 70 69 68 69 68 72 62 56 58 54 65 66 65 73 58 68 67 69 65 79 73 78 78 77 75 73 73 75 74 74 75 77 76 76 75 75 75 75 75 76 76 77 76 76 76 76 76 76 76 76 76 75 74 74
75 75 73 71 76 76 76 75 77 76 76 77 77 74 73 73 75 77 78 78 78 77 74 73 70 75 71 68 70 66 69 68 66 73 75 71 69 65 68 67 68 58 65 69 63 63 69 66 68 69 71 76 77 82 83 75 75 74 77 75 75 75 76 76 76 76 75 74 74 75 76 76 76 75 76 76 76 76 76 75 75 74 73 73 73
74 74 72 73 75 76 75 78 77 76 78 79 79 78 78 77 77 73 76 76 77 77 76 73 70 71 66 65 64 62 63 65 67 58 69 77 74 69 63 62 72 68 65 61 67 63 61 67 68 69 72 77 77 83 78 76 78 78 76 75 74 76 76 76 76 75 75 74 74 75 75 75 75 75 75 76 75 74 74 73 73 73 73 72 72
72 74 72 73 74 75 76 77 78 78 78 77 76 78 78 78 78 78 73 77 77 77 77 73 75 72 70 70 65 63 66 65 66 67 59 62 67 68 76 72 61 65 72 73 72 68 66 69 66 72 75 74 78 79 76 72 74 74 75 75 74 75 76 76 76 75 75 74 75 74 75 75 75 75 76 75 73 73 72 73 72 72 72 71 71
74 75 75 75 75 75 76 76 77 78 78 78 77 78 79 78 81 77 78 77 77 75 74 70 66 67 71 75 72 67 68 67 66 61 68 67 67 67 70 67 68 67 68 76 70 64 65 71 67 70 75 80 83 82 81 76 70 71 73 77 76 74 75 75 75 74 74 73 74 74 74 75 75 75 75 73 73 72 72 71 71 70 70 69 69
74 75 74 75 75 75 76 75 77 76 78 78 78 78 79 78 79 78 79 73 75 75 75 71 68 70 68 74 75 66 69 64 66 65 68 69 72 75 78 76 71 70 70 69 67 67 62 68 71 73 76 78 79 81 77 72 72 73 74 79 77 75 74 74 74 74 73 72 73 74 74 74 74 74 74 73 72 72 71 70 69 69 68 67 67
73 72 74 76 76 75 74 72 77 77 78 78 77 79 79 79 78 79 79 75 77 76 74 74 74 66 68 68 73 75 72 73 70 72 73 76 75 76 73 74 75 73 71 70 71 70 69 64 71 80 77 81 79 78 76 78 73 74 76 77 78 77 73 72 73 73 73 72 72 73 73 73 73 73 73 72 72 71 70 69 68 68 67 66 65
70 69 73 74 76 76 76 76 74 75 76 75 77 77 78 78 77 79 77 78 78 77 76 74 73 74 70 69 68 70 73 69 70 67 75 75 76 72 73 76 78 77 75 73 71 72 70 66 63 74 80 76 76 77 77 78 74 73 79 77 76 76 73 72 73 72 72 72 71 71 72 71 71 72 71 71 70 70 69 68 68 67 66 65 64
75 77 74 72 75 75 77 74 76 76 75 75 77 77 78 79 77 77 78 79 80 79 78 76 75 74 75 73 74 73 73 71 72 66 74 72 76 75 75 81 78 80 79 76 71 77 70 70 69 67 73 77 71 74 73 78 75 74 78 78 79 75 72 73 73 72 72 71 70 70 70 70 69 69 69 69 69 68 68 67 66 66 64 64 64
71 73 73 72 73 72 71 71 71 72 73 73 74 76 77 78 75 75 75 77 77 77 75 74 69 74 76 76 78 77 75 76 76 72 73 77 75 72 70 79 79 79 78 77 73 72 75 69 70 69 66 77 79 75 78 78 76 74 76 76 79 74 75 74 73 72 71 70 69 69 68 68 67 68 69 69 69 68 66 66 66 65 64 63 63
70 70 73 74 74 73 71 73 70 73 75 74 75 76 77 78 77 77 76 77 77 76 77 76 71 74 76 76 76 75 77 75 76 73 70 73 75 75 76 77 74 75 74 74 71 72 75 76 75 71 69 72 73 78 77 76 78 75 75 78 79 76 77 75 74 71 70 69 68 67 67 67 67 67 68 67 67 67 66 65 64 64 62 62 61
69 67 71 69 72 72 71 71 73 72 76 77 71 73 75 76 75 72 73 77 77 77 77 77 77 74 76 77 76 74 76 75 73 70 70 67 68 68 70 70 74 72 75 73 74 73 72 75 75 77 74 72 69 78 79 77 76 78 77 78 74 76 77 76 74 73 70 69 68 67 67 66 66 66 67 67 66 65 64 64 63 62 62 61 60
68 68 69 69 73 73 72 73 74 73 75 73 73 73 75 76 75 73 71 74 77 76 75 76 75 75 75 77 74 75 71 72 73 71 70 69 69 70 67 68 70 70 74 74 74 73 73 74 77 72 74 79 76 77 79 76 78 78 77 74 74 72 75 76 75 73 69 68 67 66 66 66 65 65 65 64 65 64 63 62 62 61 60 60 59
63 68 69 70 72 74 73 74 75 73 75 72 73 73 75 75 75 76 76 75 74 74 74 74 73 74 74 75 73 73 73 74 75 75 74 73 72 73 74 79 77 74 76 80 76 74 74 73 76 76 76 75 77 78 76 77 76 77 76 77 78 74 74 75 75 73 70 68 67 66 66 65 64 63 63 63 62 62 62 61 61 60 59 58 58
63 65 69 71 73 73 70 72 73 73 73 73 74 71 71 72 74 73 74 75 75 74 74 75 75 75 74 73 73 74 75 75 75 74 73 73 73 72 73 74 76 76 75 76 76 78 76 74 75 76 78 77 76 77 77 74 76 78 79 79 77 76 78 74 74 71 69 67 67 66 65 64 64 63 63 62 61 60 59 60 59 58 58 57 57
64 63 67 67 70 72 72 72 72 73 74 74 74 73 70 70 72 72 73 73 72 74 73 73 73 73 72 74 73 74 73 73 72 73 74 74 73 71 72 75 75 75 75 76 76 76 76 76 76 76 78 76 76 76 77 78 77 76 77 77 75 76 78 77 73 70 68 66 65 64 65 64 64 62 62 62 60 60 60 60 59 59 58 56 55
62 60 64 68 69 71 72 71 70 72 73 72 75 74 73 72 71 71 70 71 71 71 71 70 69 70 70 71 72 73 73 73 72 72 74 73 72 73 75 74 74 76 76 75 75 76 76 75 75 75 75 76 76 75 77 76 75 74 75 77 76 76 79 79 79 72 69 67 67 66 64 64 64 61 60 60 60 60 59 59 60 59 58 57 55
62 61 59 66 68 68 70 70 71 73 73 72 74 75 73 72 71 71 70 69 68 68 68 70 68 66 68 68 66 69 71 73 73 73 74 74 74 73 73 75 75 75 73 74 75 75 75 74 74 74 75 76 78 76 78 80 76 76 76 74 74 76 77 83 79 77 76 70 69 64 65 65 63 62 61 61 61 60 60 59 60 60 59 58 57
61 62 60 59 65 66 67 70 71 71 70 70 70 72 73 72 71 69 70 68 68 69 69 67 68 69 67 65 65 64 70 76 75 74 73 75 73 74 75 75 76 76 75 74 74 76 76 75 74 75 76 76 75 74 74 74 73 73 77 76 74 78 78 75 77 80 79 77 74 66 65 64 62 61 59 60 60 61 60 59 60 62 61 59 58
68 68 68 66 63 65 66 68 69 68 68 68 71 69 70 71 71 67 66 69 69 69 70 70 67 67 65 64 63 73 75 76 73 73 72 73 75 74 77 77 75 75 75 76 75 75 74 75 74 74 73 72 72 73 72 72 73 74 73 74 73 74 74 74 76 76 76 74 73 73 68 67 64 64 61 60 59 61 57 58 57 57 60 59 59
74 75 71 67 62 60 64 65 66 65 66 65 67 64 65 68 71 71 69 70 71 70 69 71 71 67 65 66 65 69 74 77 75 72 72 71 71 72 73 74 78 78 76 75 74 75 75 74 74 73 71 71 71 71 71 69 70 72 71 77 73 75 74 74 72 78 80 74 75 74 75 72 67 66 64 63 62 60 58 58 60 59 59 60 59
72 71 67 69 71 66 61 62 63 64 65 66 61 62 63 64 68 71 69 67 66 68 68 67 68 68 66 64 62 59 63 68 70 75 73 71 69 70 70 71 71 72 74 76 76 76 75 73 73 72 71 71 74 74 71 68 71 72 77 73 76 76 75 73 73 72 79 78 75 75 75 77 76 75 70 67 65 62 60 61 60 58 58 58 59
73 72 71 71 70 68 66 68 63 63 64 63 60 61 62 62 63 68 68 68 65 63 64 67 67 68 69 69 66 65 58 71 72 70 75 73 69 68 69 70 70 70 67 68 70 75 77 78 76 74 73 73 72 73 72 72 75 72 72 73 72 72 73 73 73 71 73 79 76 75 72 73 75 74 72 75 69 65 63 62 60 58 58 59 59
73 73 72 72 71 72 70 69 70 68 65 64 59 58 60 61 62 65 69 66 66 64 65 65 65 67 69 69 70 69 67 67 70 73 73 74 73 73 72 72 73 72 70 67 66 68 70 72 74 74 76 76 75 76 78 78 76 74 74 73 74 74 74 72 73 74 76 75 75 74 72 72 73 72 71 74 67 65 62 59 58 58 58 59 58
74 75 74 73 73 71 71 69 68 67 65 63 59 57 58 59 61 64 69 66 64 64 65 66 69 67 70 70 70 69 70 70 69 69 72 73 75 75 74 72 73 73 72 72 71 70 69 69 68 71 74 75 75 76 77 78 77 77 77 75 75 74 75 76 75 75 74 76 74 73 69 69 71 71 70 71 64 62 59 57 57 58 58 58 58
75 75 73 72 71 71 71 71 69 68 67 62 59 56 56 57 60 67 69 69 67 65 65 66 67 69 69 70 72 72 70 71 72 69 70 73 74 75 76 75 74 73 72 72 68 69 70 69 68 67 68 71 69 72 72 72 74 77 77 76 77 76 75 74 73 73 73 73 72 70 69 69 71 69 70 71 65 63 59 56 57 58 58 57 57
74 73 72 71 72 71 71 72 71 70 69 66 60 55 55 56 59 68 69 69 69 68 67 68 69 69 69 69 70 68 70 73 71 65 65 70 70 71 72 73 73 74 74 73 67 64 64 63 63 63 63 64 64 63 63 65 70 73 78 78 75 74 73 73 73 73 72 71 67 67 69 69 71 71 71 72 67 63 59 56 56 58 58 57 57
71 71 71 71 71 71 70 71 70 71 70 69 62 56 54 55 61 67 69 69 69 70 69 70 71 72 72 73 73 70 69 70 67 64 64 69 71 71 71 70 71 71 73 71 69 69 63 62 62 62 62 63 64 64 64 64 64 68 70 69 71 73 72 73 72 72 70 69 69 70 66 64 72 73 71 72 71 67 62 61 57 56 57 56 55
73 73 72 71 71 72 71 70 73 72 71 68 62 56 54 54 60 67 69 69 69 70 69 70 71 72 72 73 74 71 71 69 63 63 62 69 72 72 72 71 70 69 69 70 70 69 70 69 69 69 68 67 68 69 69 66 67 72 72 71 70 71 71 71 71 70 68 68 69 71 67 67 66 69 71 70 70 70 66 63 59 56 55 56 56